Date String (YYYY-MM-DD hh:mm:ss) UTC,Instrument flags,Ambient pressure (hPa),Sample flow (lpm),Bypass flow (lpm),Sample temperature (°C),Ambient temperature (°C),ASC tube jacket temperature (°C),LED temperature (°C),Box temperature (°C),Sample RH (%),Span deviation,Mass concentration (μg/m³),Mass concentration (μg/m³),Mass concentration (μg/m³)
DateTimeUTC,F1_M11,P_M11,Q1_M11,Q2_M11,T1_M11,T2_M11,T3_M11,T4_M11,T5_M11,U1_M11,ZSPAN_M11,X0_M11,X2_M11,X1_M11
2021-10-26 13:00:00,,0811.0,5.01,0.00,29.0,28.1,00.0,38.2,30.8,12.3,0000.0,0015.78,0004.78,0003.59
2021-10-26 13:01:00,,0811.0,4.99,0.00,29.0,28.1,00.0,38.1,30.8,12.3,0000.0,0016.15,0004.82,0003.59
2021-10-26 13:02:00,,0811.0,5.00,0.00,29.0,28.1,00.0,38.2,30.8,12.4,0000.0,0017.45,0004.88,0003.60
2021-10-26 13:03:00,,0811.0,5.00,0.00,29.0,28.1,00.0,38.2,30.8,12.4,0000.0,0017.87,0004.88,0003.62
2021-10-26 13:04:00,,0811.0,5.02,0.00,29.0,28.1,00.0,38.1,30.8,12.3,0000.0,0018.69,0004.92,0003.65
2021-10-26 13:05:00,,0811.1,4.99,0.00,29.1,28.1,00.0,38.1,30.8,12.2,0000.0,0019.51,0004.94,0003.65
2021-10-26 13:06:00,,0811.0,5.01,0.00,29.0,28.1,00.0,38.2,30.8,12.1,0000.0,0020.41,0004.94,0003.63
2021-10-26 13:07:00,,0811.0,4.99,0.00,29.0,28.1,00.0,38.1,30.8,12.2,0000.0,0019.86,0004.96,0003.63
2021-10-26 13:08:00,,0811.0,4.99,0.00,29.0,28.1,00.0,38.1,30.8,12.1,0000.0,0019.11,0004.90,0003.62
2021-10-26 13:09:00,,0811.0,5.00,0.00,29.0,28.1,00.0,38.1,30.8,12.2,0000.0,0018.23,0004.88,0003.60
2021-10-26 13:10:00,,0811.0,5.01,0.00,29.0,28.1,00.0,38.2,30.8,12.2,0000.0,0018.61,0004.87,0003.58
2021-10-26 13:11:00,,0811.0,4.98,0.00,29.0,28.1,00.0,38.2,30.8,12.3,0000.0,0018.89,0004.84,0003.56
2021-10-26 13:12:00,,0810.9,5.01,0.00,29.0,28.1,00.0,38.1,30.8,12.4,0000.0,0018.24,0004.83,0003.55
2021-10-26 13:13:00,,0811.0,4.99,0.00,29.0,28.1,00.0,38.1,30.7,12.5,0000.0,0017.13,0004.83,0003.54
2021-10-26 13:14:00,,0810.9,5.00,0.00,29.0,28.1,00.0,38.1,30.8,12.9,0000.0,0017.51,0004.88,0003.53
2021-10-26 13:15:00,,0810.8,4.99,0.00,29.0,28.1,00.0,38.1,30.8,12.9,0000.0,0016.57,0004.89,0003.52
2021-10-26 13:16:00,,0810.9,5.00,0.00,29.0,28.1,00.0,38.1,30.8,12.8,0000.0,0016.17,0004.87,0003.51
2021-10-26 13:17:00,,0811.0,5.00,0.00,29.0,28.1,00.0,38.1,30.7,12.7,0000.0,0015.32,0004.88,0003.53
2021-10-26 13:18:00,,0810.9,5.00,0.00,29.0,28.1,00.0,38.1,30.8,12.6,0000.0,0015.77,0004.91,0003.52
2021-10-26 13:19:00,,0810.8,4.99,0.00,29.0,28.1,00.0,38.1,30.7,12.4,0000.0,0015.50,0004.97,0003.51
2021-10-26 13:20:00,,0810.9,5.01,0.00,29.0,28.1,00.0,38.1,30.7,12.1,0000.0,0015.12,0004.93,0003.50
2021-10-26 13:21:00,,0810.9,4.99,0.00,29.0,28.1,00.0,38.1,30.8,12.1,0000.0,0014.44,0004.93,0003.50
2021-10-26 13:22:00,,0810.9,5.00,0.00,29.0,28.0,00.0,38.1,30.7,12.1,0000.0,0014.30,0004.94,0003.51
2021-10-26 13:23:00,,0810.8,5.01,0.00,29.0,28.1,00.0,38.1,30.8,12.1,0000.0,0014.23,0004.90,0003.48
2021-10-26 13:24:00,,0810.7,4.99,0.00,29.0,28.0,00.0,38.1,30.7,12.1,0000.0,0014.09,0004.85,0003.46
2021-10-26 13:25:00,,0810.7,5.01,0.00,29.0,28.0,00.0,38.1,30.7,12.1,0000.0,0013.72,0004.79,0003.45
2021-10-26 13:26:00,,0810.7,5.01,0.00,29.0,28.0,00.0,38.1,30.7,12.0,0000.0,0013.27,0004.75,0003.41
2021-10-26 13:27:00,,0810.6,4.99,0.00,29.0,28.0,00.0,38.1,30.7,12.0,0000.0,0012.63,0004.72,0003.39
2021-10-26 13:28:00,,0810.6,5.00,0.00,29.0,28.0,00.0,38.1,30.7,12.2,0000.0,0011.72,0004.69,0003.38
2021-10-26 13:29:00,,0810.6,5.00,0.00,29.0,28.0,00.0,38.1,30.7,12.4,0000.0,0011.81,0004.65,0003.38
2021-10-26 13:30:00,,0810.6,5.00,0.00,29.0,28.0,00.0,38.1,30.7,12.2,0000.0,0012.29,0004.62,0003.39
2021-10-26 13:31:00,,0810.6,5.00,0.00,29.0,28.0,00.0,38.1,30.7,12.1,0000.0,0012.05,0004.58,0003.39
2021-10-26 13:32:00,,0810.6,5.00,0.00,29.0,28.0,00.0,38.1,30.7,12.0,0000.0,0012.29,0004.59,0003.39
2021-10-26 13:33:00,,0810.6,5.01,0.00,29.0,28.0,00.0,38.1,30.7,12.0,0000.0,0012.66,0004.54,0003.38
2021-10-26 13:34:00,,0810.6,4.99,0.00,29.0,28.0,00.0,38.1,30.7,12.1,0000.0,0013.39,0004.55,0003.40
2021-10-26 13:35:00,,0810.6,4.99,0.00,29.0,28.0,00.0,38.1,30.7,12.2,0000.0,0013.49,0004.53,0003.42
2021-10-26 13:36:00,,0810.5,5.02,0.00,29.0,28.0,00.0,38.1,30.7,12.5,0000.0,0013.22,0004.58,0003.47
2021-10-26 13:37:00,,0810.5,4.98,0.00,29.0,28.0,00.0,38.1,30.7,12.3,0000.0,0013.44,0004.64,0003.51
2021-10-26 13:38:00,,0810.5,5.01,0.00,29.0,28.0,00.0,38.1,30.7,12.0,0000.0,0013.27,0004.61,0003.53
2021-10-26 13:39:00,,0810.5,5.00,0.00,29.0,28.0,00.0,38.1,30.7,11.9,0000.0,0013.40,0004.61,0003.51
2021-10-26 13:40:00,,0810.5,4.99,0.00,29.0,28.0,00.0,38.1,30.7,11.9,0000.0,0012.67,0004.53,0003.48
2021-10-26 13:41:00,,0810.5,4.99,0.00,29.0,28.0,00.0,38.1,30.7,11.9,0000.0,0011.80,0004.46,0003.46
2021-10-26 13:42:00,,0810.5,5.01,0.00,29.0,28.0,00.0,38.1,30.6,11.7,0000.0,0011.91,0004.45,0003.45
2021-10-26 13:43:00,,0810.5,5.00,0.00,29.0,28.0,00.0,38.1,30.7,12.2,0000.0,0012.28,0004.53,0003.48
2021-10-26 13:44:00,,0810.5,5.00,0.00,29.0,28.0,00.0,38.1,30.7,11.2,0000.0,0011.81,0004.52,0003.47
2021-10-26 13:45:00,,0810.5,5.00,0.00,29.0,28.0,00.0,38.1,30.7,11.0,0000.0,0011.29,0004.40,0003.42
2021-10-26 13:46:00,,0810.4,5.01,0.00,29.0,28.0,00.0,38.1,30.7,10.9,0000.0,0010.75,0004.27,0003.35
2021-10-26 13:47:00,,0810.4,4.99,0.00,29.0,28.0,00.0,38.1,30.7,11.0,0000.0,0009.99,0004.06,0003.23
2021-10-26 13:48:00,,0810.4,5.01,0.00,29.0,28.0,00.0,38.1,30.7,11.0,0000.0,0009.14,0003.86,0003.12
2021-10-26 13:49:00,,0810.4,4.99,0.00,29.0,28.0,00.0,38.1,30.7,11.1,0000.0,0008.97,0003.77,0003.02
2021-10-26 13:50:00,,0810.4,4.99,0.00,29.0,28.0,00.0,38.1,30.7,11.2,0000.0,0008.74,0003.68,0002.96
2021-10-26 13:51:00,,0810.3,5.02,0.00,29.0,28.0,00.0,38.1,30.7,11.3,0000.0,0009.24,0003.65,0002.93
2021-10-26 13:52:00,,0810.3,5.00,0.00,28.9,28.0,00.0,38.1,30.7,11.5,0000.0,0009.84,0003.70,0002.92
2021-10-26 13:53:00,,0810.3,5.00,0.00,28.9,28.0,00.0,38.1,30.7,11.6,0000.0,0009.84,0003.71,0002.93
2021-10-26 13:54:00,,0810.4,5.00,0.00,28.9,28.0,00.0,38.0,30.7,11.7,0000.0,0009.81,0003.62,0002.89
2021-10-26 13:55:00,,0810.3,5.00,0.00,29.0,28.0,00.0,38.1,30.7,11.7,0000.0,0009.74,0003.60,0002.89
2021-10-26 13:56:00,,0810.3,5.00,0.00,29.0,28.0,00.0,38.1,30.7,11.7,0000.0,0009.34,0003.71,0002.97
2021-10-26 13:57:00,,0810.4,5.00,0.00,29.0,28.0,00.0,38.1,30.7,11.6,0000.0,0010.42,0003.80,0003.07
2021-10-26 13:58:00,,0810.3,5.01,0.00,29.0,28.1,00.0,38.1,30.7,11.7,0000.0,0010.89,0003.93,0003.16
2021-10-26 13:59:00,,0810.3,5.00,0.00,29.0,28.1,00.0,38.1,30.7,11.4,0000.0,0011.64,0004.00,0003.20
